LANDSAT 3

导读 | 星芒AI

LANDSAT 3 卫星是美国国家航空航天局(NASA)于1978年3月发射的第三代陆地卫星,属于Landsat计划的一部分。该卫星搭载了多光谱扫描仪(MSS),用于获取地球表面的多波段影像,主要用于土地利用、农业监测和环境研究。LANDSAT 3 提高了数据分辨率和系统稳定性,为后续Landsat卫星的发展奠定了基础。其成功运行标志着遥感技术在地球观测中的广泛应用。

基本信息
目录编号:
10702
目录名称:
LANDSAT 3
国际标识:
1978-026A
轨道中心:
EARTH
卫星名称:
LANDSAT 3
卫星全名:
--
卫星状态:
在轨 (已飞行17453 天)
发射日期:
1978-03-05 UTC
国别 :
美国 (US)
星等 :
--
轨道信息
数据来源 国际轨道数据
星历时间: 2025-12-15T17:13:44+0800
15小时前
查看轨道信息
半长轴: 7282.431km
偏心率: 0.0013665
轨道倾角: 99.043°
近地点辐角 290.786°
升交点赤经 302.346°
平近点角 182.838°
近地点: 894.344km
远地点: 914.248km
周期: 103.080分钟
每日圈数: 13.969738
详细信息
使用方式:
暂无
2D轨道图
3D轨道图
轨道高度分析图
轨道倾角分析图
轨道综合分析图
查看轨道综合分析图